Location: Melara
(45.0500°N, 11.1833°E)
Time: 22:57:07
(UTC+00:00)

BREEZE-M DEB (TANK) - Pass Details

Date: 26 May 2022
Orbit: 321 x 13840 km, 49.6° (Epoch: 01 July)

Event Time Altitude Azimuth Distance (km) Brightness Sun altitude
Rises 00:49:34 0° 253° (WSW) 10,155 8.8 -20.2°
Reaches altitude 10° 00:59:36 10° 256° (WSW) 6,834 8.0 -19.5°
Maximum altitude 01:14:39 70° 340° (NNW) 1,181 4.5 -18.2°
Drops below altitude 10° 01:18:46 10° 66° (ENE) 2,012 6.5 -17.9°
Sets 01:20:09 0° 69° (ENE) 2,623 7.1 -17.7°
